User: anonymous   Login
Location: Unspecified
(0.0000°N, 0.0000°E)
Time: 08:56:34
(UTC+00:00)
Language:

STARLINK-35158 - Orbit

View from above orbital plane
View from above orbital plane
View from above satellite
View from above satellite

Ground track
Ground track

The orbit is defined by the following mean orbital elements,

1 66381U          26145.46922693 +.00000000 +00000-0 +59834-3 0 00008
2 66381  53.1597 220.7576 0001672  88.0180 272.1012 15.30185573    09
Epoch (UTC): 25 May 2026 11:15:41
Eccentricity: 0.0001672
inclination: 53.1597°
perigee height: 474 km
apogee height: 476 km
right ascension of ascending node: 220.7576°
argument of perigee: 88.0180°
revolutions per day: 15.30185573
mean anomaly at epoch: 272.1012°

The dashed part of the orbit path shows where the satellite is in the earth's shadow,  

DLR